| time (UTC) | temp F | wind direction | speed knots | gust knots | rain 1hr in | rain 24hr in | rain mn in | humidity % | barometer mb |
| 20260502151005 | 57 | 205 | 11.3 | 18.2 | 0.00 | 0.00 | 0.00 | 45 | 1010.5 |
| 20260502150105 | 56 | 209 | 9.6 | 18.2 | 0.00 | 0.00 | 0.00 | 47 | 1010.9 |
| 20260502140104 | 52 | 199 | 11.3 | 23.5 | 0.00 | 0.00 | 0.00 | 50 | 1011.6 |
| 20260502130104 | 46 | 255 | 3.5 | 8.7 | 0.00 | 0.00 | 0.00 | 57 | 1013.6 |
| 20260502123704 | 46 | 210 | 7.0 | 13.0 | 0.00 | 0.00 | 0.00 | 54 | 1013.3 |
| 20260502122825 | 46 | 205 | 7.0 | 14.8 | 0.00 | 0.00 | 0.00 | 55 | 1013.1 |
| 20260502121925 | 46 | 206 | 6.1 | 10.4 | 0.00 | 0.00 | 0.00 | 55 | 1013.3 |
| 20260502121005 | 46 | 203 | 6.1 | 9.6 | 0.00 | 0.00 | 0.00 | 55 | 1013.5 |
| 20260502120104 | 45 | 210 | 6.1 | 10.4 | 0.00 | 0.00 | 0.00 | 56 | 1013.6 |
| 20260502115504 | 45 | 213 | 5.2 | 9.6 | 0.00 | 0.00 | 0.00 | 56 | 1013.7 |
| 20260502114604 | 44 | 215 | 4.3 | 9.6 | 0.00 | 0.00 | 0.00 | 57 | 1013.7 |
| 20260502113725 | 44 | 219 | 5.2 | 10.4 | 0.00 | 0.00 | 0.00 | 57 | 1013.9 |
| 20260502112804 | 43 | 220 | 5.2 | 11.3 | 0.00 | 0.00 | 0.00 | 59 | 1013.9 |
| 20260502111904 | 42 | 229 | 3.5 | 7.8 | 0.00 | 0.00 | 0.00 | 60 | 1014.0 |
| 20260502111004 | 42 | 215 | 3.5 | 6.1 | 0.00 | 0.00 | 0.00 | 60 | 1014.1 |
| 20260502110104 | 42 | 224 | 3.5 | 6.1 | 0.00 | 0.00 | 0.00 | 60 | 1014.1 |
| 20260502105504 | 42 | 236 | 2.6 | 4.3 | 0.00 | 0.00 | 0.00 | 60 | 1014.1 |
| 20260502104604 | 42 | 230 | 3.5 | 4.3 | 0.00 | 0.00 | 0.00 | 60 | 1014.1 |
| 20260502103704 | 42 | 234 | 2.6 | 4.3 | 0.00 | 0.00 | 0.00 | 60 | 1014.1 |
| 20260502102804 | 42 | 233 | 2.6 | 5.2 | 0.00 | 0.00 | 0.00 | 60 | 1014.0 |
| 20260502101904 | 42 | 226 | 3.5 | 5.2 | 0.00 | 0.00 | 0.00 | 60 | 1014.1 |
| 20260502101004 | 42 | 229 | 3.5 | 5.2 | 0.00 | 0.00 | 0.00 | 60 | 1014.1 |
| 20260502100104 | 42 | 250 | 2.6 | 5.2 | 0.00 | 0.00 | 0.00 | 59 | 1014.1 |
| 20260502091004 | 42 | 214 | 1.7 | 4.3 | 0.00 | 0.00 | 0.00 | 59 | 1014.1 |
| 20260502090104 | 42 | 205 | 2.6 | 5.2 | 0.00 | 0.00 | 0.00 | 59 | 1014.2 |
| 20260502080104 | 43 | 234 | 2.6 | 5.2 | 0.00 | 0.00 | 0.00 | 57 | 1015.0 |
| 20260502071003 | 44 | 239 | 2.6 | 6.1 | 0.00 | 0.00 | 0.00 | 55 | 1015.5 |
| 20260502070124 | 44 | 247 | 2.6 | 6.1 | 0.00 | 0.00 | 0.00 | 54 | 1015.5 |
| 20260502065503 | 45 | 252 | 2.6 | 7.0 | 0.00 | 0.00 | 0.00 | 54 | 1015.5 |
| 20260502064604 | 45 | 249 | 3.5 | 6.1 | 0.00 | 0.00 | 0.00 | 54 | 1015.5 |
| 20260502063724 | 45 | 245 | 2.6 | 6.1 | 0.00 | 0.00 | 0.00 | 53 | 1015.5 |
| 20260502062804 | 45 | 242 | 3.5 | 7.0 | 0.00 | 0.00 | 0.00 | 53 | 1015.6 |
| 20260502061903 | 46 | 245 | 3.5 | 7.0 | 0.00 | 0.00 | 0.00 | 53 | 1015.7 |
| 20260502061003 | 46 | 244 | 3.5 | 7.8 | 0.00 | 0.00 | 0.00 | 52 | 1015.7 |
| 20260502055503 | 46 | 225 | 4.3 | 8.7 | 0.00 | 0.00 | 0.00 | 51 | 1015.7 |
| 20260502054604 | 46 | 224 | 4.3 | 7.0 | 0.00 | 0.00 | 0.00 | 51 | 1015.7 |
| 20260502053703 | 46 | 226 | 3.5 | 7.0 | 0.00 | 0.00 | 0.00 | 51 | 1015.8 |
| 20260502052803 | 46 | 216 | 3.5 | 7.0 | 0.00 | 0.00 | 0.00 | 51 | 1015.8 |
| 20260502051903 | 46 | 225 | 3.5 | 5.2 | 0.00 | 0.00 | 0.00 | 51 | 1015.9 |
| 20260502051024 | 47 | 235 | 3.5 | 5.2 | 0.00 | 0.00 | 0.00 | 50 | 1016.0 |
| 20260502045503 | 47 | 235 | 2.6 | 5.2 | 0.00 | 0.00 | 0.00 | 49 | 1016.0 |
| 20260502044603 | 47 | 237 | 1.7 | 5.2 | 0.00 | 0.00 | 0.00 | 49 | 1016.0 |
| 20260502043703 | 48 | 236 | 1.7 | 6.1 | 0.00 | 0.00 | 0.00 | 48 | 1016.1 |
| 20260502042803 | 48 | 221 | 2.6 | 6.1 | 0.00 | 0.00 | 0.00 | 47 | 1016.2 |
| 20260502041924 | 49 | 213 | 2.6 | 7.0 | 0.00 | 0.00 | 0.00 | 47 | 1016.2 |
| 20260502041024 | 49 | 206 | 3.5 | 7.8 | 0.00 | 0.00 | 0.00 | 46 | 1016.2 |
| 20260502040103 | 49 | 206 | 4.3 | 7.8 | 0.00 | 0.00 | 0.00 | 46 | 1016.2 |
| 20260502035503 | 49 | 204 | 3.5 | 7.8 | 0.00 | 0.00 | 0.00 | 46 | 1016.2 |
| 20260502034603 | 50 | 207 | 2.6 | 7.0 | 0.00 | 0.00 | 0.00 | 45 | 1016.2 |
| 20260502033703 | 50 | 211 | 2.6 | 6.1 | 0.00 | 0.00 | 0.00 | 45 | 1016.2 |
| 20260502032803 | 50 | 204 | 3.5 | 6.1 | 0.00 | 0.00 | 0.00 | 46 | 1016.2 |
| 20260502031924 | 50 | 202 | 3.5 | 7.0 | 0.00 | 0.00 | 0.00 | 46 | 1016.2 |
| 20260502031003 | 50 | 194 | 3.5 | 5.2 | 0.00 | 0.00 | 0.00 | 45 | 1016.2 |
| 20260502025524 | 51 | 189 | 3.5 | 6.1 | 0.00 | 0.00 | 0.00 | 44 | 1016.1 |
| 20260502024603 | 52 | 196 | 2.6 | 5.2 | 0.00 | 0.00 | 0.00 | 43 | 1016.1 |
| 20260502023703 | 52 | 196 | 2.6 | 5.2 | 0.00 | 0.00 | 0.00 | 42 | 1016.1 |
| 20260502022803 | 53 | 196 | 1.7 | 4.3 | 0.00 | 0.00 | 0.00 | 41 | 1016.0 |
| 20260502021903 | 53 | 213 | 2.6 | 3.5 | 0.00 | 0.00 | 0.00 | 40 | 1015.9 |
| 20260502021003 | 54 | 215 | 1.7 | 3.5 | 0.00 | 0.00 | 0.00 | 39 | 1016.0 |
| 20260502015503 | 56 | 205 | 2.6 | 4.3 | 0.00 | 0.00 | 0.00 | 39 | 1015.9 |
| 20260502014603 | 57 | 197 | 2.6 | 5.2 | 0.00 | 0.00 | 0.00 | 39 | 1015.9 |
| 20260502013703 | 58 | 209 | 2.6 | 5.2 | 0.00 | 0.00 | 0.00 | 38 | 1016.0 |
| 20260502012803 | 59 | 215 | 2.6 | 4.3 | 0.00 | 0.00 | 0.00 | 37 | 1016.0 |
| 20260502011903 | 59 | 231 | 2.6 | 5.2 | 0.00 | 0.00 | 0.00 | 38 | 1016.0 |
| 20260502011003 | 60 | 232 | 2.6 | 7.0 | 0.00 | 0.00 | 0.00 | 40 | 1016.0 |
| 20260502010104 | 59 | 233 | 1.7 | 7.0 | 0.00 | 0.00 | 0.00 | 38 | 1016.0 |
| 20260502005503 | 59 | 241 | 3.5 | 8.7 | 0.00 | 0.00 | 0.00 | 38 | 1016.1 |
| 20260502004603 | 60 | 240 | 4.3 | 7.0 | 0.00 | 0.00 | 0.00 | 35 | 1016.1 |
| 20260502003703 | 60 | 241 | 5.2 | 7.8 | 0.00 | 0.00 | 0.00 | 35 | 1016.1 |
| 20260502002824 | 61 | 253 | 4.3 | 7.8 | 0.00 | 0.00 | 0.00 | 34 | 1016.1 |
| 20260502001903 | 61 | 255 | 5.2 | 11.3 | 0.00 | 0.00 | 0.00 | 35 | 1016.2 |
| 20260502001003 | 61 | 242 | 7.0 | 11.3 | 0.00 | 0.00 | 0.00 | 36 | 1016.2 |
| 20260501235503 | 62 | 253 | 5.2 | 8.7 | 0.00 | 0.00 | 0.00 | 35 | 1016.3 |
| 20260501234603 | 62 | 307 | 7.0 | 11.3 | 0.00 | 0.00 | 0.00 | 35 | 1016.3 |
| 20260501233703 | 62 | 327 | 5.2 | 11.3 | 0.00 | 0.00 | 0.00 | 38 | 1016.3 |
| 20260501232803 | 61 | 303 | 6.1 | 11.3 | 0.00 | 0.00 | 0.00 | 36 | 1016.4 |
| 20260501231924 | 61 | 307 | 6.1 | 11.3 | 0.00 | 0.00 | 0.00 | 35 | 1016.4 |
| 20260501231024 | 62 | 317 | 6.1 | 11.3 | 0.00 | 0.00 | 0.00 | 36 | 1016.4 |
| 20260501225503 | 59 | 20 | 2.6 | 8.7 | 0.00 | 0.00 | 0.00 | 37 | 1016.4 |
| 20260501224602 | 59 | 314 | 5.2 | 15.6 | 0.00 | 0.00 | 0.00 | 36 | 1016.5 |
| 20260501223702 | 61 | 323 | 7.0 | 15.6 | 0.00 | 0.00 | 0.00 | 36 | 1016.5 |
| 20260501222823 | 63 | 28 | 4.3 | 12.2 | 0.00 | 0.00 | 0.00 | 37 | 1016.5 |
| 20260501221923 | 61 | 339 | 4.3 | 9.6 | 0.00 | 0.00 | 0.00 | 34 | 1016.5 |
| 20260501221003 | 62 | 346 | 5.2 | 11.3 | 0.00 | 0.00 | 0.00 | 38 | 1016.7 |
| 20260501215502 | 60 | 350 | 3.5 | 7.8 | 0.00 | 0.00 | 0.00 | 41 | 1016.8 |
| 20260501214602 | 61 | 345 | 6.1 | 13.0 | 0.00 | 0.00 | 0.00 | 38 | 1016.9 |
| 20260501213702 | 61 | 14 | 4.3 | 11.3 | 0.00 | 0.00 | 0.00 | 42 | 1017.0 |
| 20260501212802 | 61 | 11 | 6.1 | 13.9 | 0.00 | 0.00 | 0.00 | 38 | 1017.1 |
| 20260501211903 | 61 | 341 | 5.2 | 13.9 | 0.00 | 0.00 | 0.00 | 39 | 1017.0 |
| 20260501211002 | 60 | 323 | 5.2 | 9.6 | 0.00 | 0.00 | 0.00 | 39 | 1017.1 |
| 20260501205502 | 60 | 352 | 4.3 | 9.6 | 0.00 | 0.00 | 0.00 | 40 | 1017.4 |
| 20260501204623 | 60 | 334 | 5.2 | 12.2 | 0.00 | 0.00 | 0.00 | 42 | 1017.4 |
| 20260501203702 | 60 | 342 | 7.0 | 12.2 | 0.00 | 0.00 | 0.00 | 38 | 1017.5 |
| 20260501202803 | 60 | 1 | 6.1 | 11.3 | 0.00 | 0.00 | 0.00 | 40 | 1017.5 |
| 20260501201902 | 61 | 30 | 3.5 | 11.3 | 0.00 | 0.00 | 0.00 | 38 | 1017.5 |
| 20260501201002 | 60 | 348 | 7.0 | 12.2 | 0.00 | 0.00 | 0.00 | 43 | 1017.7 |
| 20260501195502 | 61 | 353 | 7.8 | 15.6 | 0.00 | 0.00 | 0.00 | 39 | 1017.5 |
| 20260501194602 | 62 | 11 | 5.2 | 13.0 | 0.00 | 0.00 | 0.00 | 38 | 1017.5 |
| 20260501193702 | 62 | 12 | 8.7 | 17.4 | 0.00 | 0.00 | 0.00 | 43 | 1017.7 |
| 20260501192802 | 62 | 28 | 8.7 | 17.4 | 0.00 | 0.00 | 0.00 | 40 | 1017.6 |
| 20260501191902 | 62 | 19 | 8.7 | 14.8 | 0.00 | 0.00 | 0.00 | 38 | 1017.6 |
| 20260501191002 | 62 | 358 | 9.6 | 16.5 | 0.00 | 0.00 | 0.00 | 39 | 1017.6 |
| 20260501185502 | 61 | 10 | 7.8 | 14.8 | 0.00 | 0.00 | 0.00 | 42 | 1017.6 |
| 20260501184623 | 61 | 13 | 8.7 | 14.8 | 0.00 | 0.00 | 0.00 | 46 | 1017.7 |
| 20260501183702 | 59 | 26 | 4.3 | 12.2 | 0.00 | 0.00 | 0.00 | 46 | 1017.7 |
| 20260501182823 | 59 | 11 | 7.0 | 13.9 | 0.00 | 0.00 | 0.00 | 41 | 1017.8 |
| 20260501181902 | 58 | 23 | 7.0 | 13.9 | 0.00 | 0.00 | 0.00 | 43 | 1017.8 |
| 20260501181002 | 57 | 11 | 6.1 | 14.8 | 0.00 | 0.00 | 0.00 | 46 | 1017.7 |
| 20260501175502 | 57 | 347 | 7.0 | 16.5 | 0.00 | 0.00 | 0.00 | 47 | 1017.8 |
| 20260501174602 | 56 | 351 | 5.2 | 14.8 | 0.00 | 0.00 | 0.00 | 48 | 1018.0 |
| 20260501173702 | 55 | 328 | 6.1 | 13.9 | 0.00 | 0.00 | 0.00 | 50 | 1018.1 |
| 20260501172802 | 55 | 338 | 5.2 | 11.3 | 0.00 | 0.00 | 0.00 | 45 | 1018.2 |
| 20260501171902 | 54 | 341 | 4.3 | 12.2 | 0.00 | 0.00 | 0.00 | 50 | 1018.2 |
| 20260501171002 | 54 | 330 | 7.0 | 11.3 | 0.00 | 0.00 | 0.00 | 45 | 1018.2 |
| 20260501165502 | 53 | 326 | 6.1 | 10.4 | 0.00 | 0.00 | 0.00 | 46 | 1018.2 |
| 20260501164602 | 53 | 333 | 5.2 | 10.4 | 0.00 | 0.00 | 0.00 | 48 | 1018.2 |
| 20260501163702 | 52 | 309 | 5.2 | 10.4 | 0.00 | 0.00 | 0.00 | 50 | 1018.3 |
| 20260501162823 | 52 | 334 | 6.1 | 11.3 | 0.00 | 0.00 | 0.00 | 48 | 1018.3 |
| 20260501161902 | 51 | 319 | 6.1 | 10.4 | 0.00 | 0.00 | 0.00 | 48 | 1018.2 |
| 20260501161002 | 50 | 315 | 4.3 | 10.4 | 0.00 | 0.00 | 0.00 | 48 | 1018.1 |
| 20260501155502 | 49 | 318 | 4.3 | 10.4 | 0.00 | 0.00 | 0.00 | 51 | 1018.2 |
| 20260501153702 | 48 | 320 | 4.3 | 7.8 | 0.00 | 0.00 | 0.00 | 53 | 1018.4 |
| 20260501152802 | 47 | 320 | 2.6 | 8.7 | 0.00 | 0.00 | 0.00 | 56 | 1018.5 |